Regional Weather Roundup
Issued by NWS Bismarck, ND

Home | Current Version | Previous Version | Text Only | Print | Product List | Glossary On
Versions: 1 2 3 4 5 6 7 8 9 10 11 12 13 14 15 16 17 18 19 20 21 22 23 24 25 26 27 28 29 30 31 32 33 34 35 36 37 38 39 40 41 42 43 44 45 46 47 48 49 50
600
ASUS43 KBIS 251710
RWRBIS

NWR BROADCAST TEXT
NATIONAL WEATHER SERVICE BISMARCK ND
1200 PM CDT SAT MAR 25 2017

NOTE: "FAIR" INDICATES FEW OR NO CLOUDS BELOW 12,000 FEET WITH NO
SIGNIFICANT WEATHER AND/OR OBSTRUCTIONS TO VISIBILITY.


CITY           SKY/WX    TMP DP  RH WIND       PRES   REMARKS
WILLISTON      FAIR      56  34  43 W13G21    29.88R
MINOT          CLOUDY    38  32  79 S16G28    29.91F
MINOT AFB      FAIR      37  32  85 S12       29.92R
BISMARCK       CLOUDY    36  32  85 S18       30.05S
DICKINSON      FAIR      45  32  60 S16       29.90F
GARRISON         N/A     35  31  85 S20       29.95F
HETTINGER ARPT PTSUNNY   46  33  60 SE10      29.95F
JAMESTOWN      CLOUDY    34  31  88 S18G26    30.09S
HAZEN          FAIR      39  32  75 S12G17    30.00S
LINTON           N/A     36  36 100 S25G31    30.06S
MANDAN         PTSUNNY   36  36 100 S18G24    30.03S
RUGBY            N/A     32  32 100 SE17G25   30.00S
STANLEY        FAIR      37  37 100 S16       29.90S
TIOGA          PTSUNNY   45  41  87 S15G22    29.88S
WATFORD CITY   FAIR      54  36  50 W10       29.88F
$$

CITY           SKY/WX    TMP DP  RH WIND       PRES   REMARKS
GRAND FORKS    CLOUDY    38  33  82 S17G24    30.15S
GRAND FORKS AF CLOUDY    37  32  82 S18G26    30.14S
DEVILS LAKE    CLOUDY    35  31  85 S22       30.08S
FARGO          CLOUDY    36  32  85 SE12      30.17F
CAVALIER         N/A     36  32  87 S17       30.11S
GRAFTON        PTSUNNY   37  34  87 S22       30.15F
GWINNER        CLOUDY    36  32  87 MISG      30.14F
LANGDON        CLOUDY    37  34  87 S24G30    30.06S
ROLLA          CLOUDY    30  30 100 S22G29    30.00S WCI  17
$$

CITY           SKY/WX    TMP DP  RH WIND       PRES   REMARKS
ABERDEEN       CLOUDY    36  28  73 S8        30.13F
MOBRIDGE       CLOUDY    36  31  82 S16       30.04F
BUFFALO          N/A     50  33  52 CALM      29.86S
RAPID CITY     FAIR      56  33  42 SE13      29.91F
GLASGOW        FAIR      54  27  35 W22G32    29.90R
SIDNEY         PTSUNNY   57  29  34 NW15      29.90R
WOLF POINT     PTSUNNY   55  31  39 W21       29.89S
GLENDIVE       CLOUDY    56  31  38 NW14      29.93S
MILES CITY     CLOUDY    56  30  37 NW16G22   29.95R
BAKER          FAIR      56  32  40 N13       29.93R
$$

CITY           SKY/WX    TMP DP  RH WIND       PRES   REMARKS
BILLINGS       CLOUDY    49  33  54 SW5       29.99R
GREAT FALLS    FAIR      48  21  34 SW20      29.96S
REGINA         PTSUNNY   50  36  57 SW22G29   29.74S
ESTEVAN        MOSUNNY   46  37  71 SW13      29.83R
$$





USA.gov is the U.S. government's official web portal to all federal, state and local government web resources and services.